Location: Hradec Kralove
(50.2170°N, 15.8330°E)
Time: 14:39:32
(UTC+02:00)

TIGRISAT - Visible Passes

Search period start: 16 June 2025 00:00
Search period end: 26 June 2025 00:00
Orbit: 584 x 656 km, 97.7° (Epoch: 15 June)

Date Brightness Start Highest point End Pass type
(mag) Time Alt. Az. Time Alt. Az. Time Alt. Az.
16 Jun ? 02:30:11 10° E 02:32:29 14° ENE 02:34:46 10° NNE visible
17 Jun ? 02:46:23 10° ESE 02:49:30 19° ENE 02:52:36 10° NNE visible
18 Jun ? 03:02:53 10° ESE 03:06:34 25° ENE 03:10:13 10° N visible
19 Jun ? 03:19:36 10° SE 03:23:40 35° ENE 03:27:42 10° N visible
20 Jun ? 03:36:28 10° SE 03:40:48 49° ENE 03:45:05 10° N visible
21 Jun ? 02:21:09 10° ENE 02:22:37 11° NE 02:24:04 10° NE visible
21 Jun ? 03:53:30 10° SSE 03:57:58 72° ENE 04:02:23 10° N visible
22 Jun ? 02:36:57 10° E 02:39:36 16° ENE 02:42:13 10° NNE visible
23 Jun ? 02:53:17 10° ESE 02:56:37 21° ENE 02:59:55 10° NNE visible
24 Jun ? 03:09:51 10° SE 03:13:41 29° ENE 03:17:27 10° N visible
25 Jun ? 03:26:37 10° SE 03:30:46 40° ENE 03:34:52 10° N visible
